Total_Precipitation_Accumulation
0.02 0.12 0.22 0.22 0.25 0.07 0.01 0.01 0.01 0.03 0.01 0.00 0.00 0.00 0.00 0.00 0.00 0.02 0.00 0.00 0.00 0.00 0.01 0.03 0.09 0.08 0.13 0.14 0.09 0.16 0.38 0.57 0.63 0.82 0.96 0.95 2.05 2.77 0.90 0.64 0.42 0.42 0.37 0.56 0.78 0.66 0.29 0.43 0.37
0.23 0.25 0.26 0.22 0.12 0.00 0.04 0.03 0.03 0.02 0.00 0.00 0.00 0.00 0.00 0.00 0.00 0.00 0.01 0.02 0.00 0.00 0.00 0.00 0.08 0.09 0.16 0.18 0.12 0.24 0.38 0.48 0.69 1.00 1.07 1.47 2.22 2.36 0.94 0.47 0.30 0.48 0.40 0.67 0.83 0.42 0.25 0.16 0.10
0.43 0.46 0.51 0.17 0.01 0.01 0.03 0.04 0.02 0.00 0.01 0.01 0.00 0.00 0.00 0.00 0.00 0.00 0.00 0.00 0.00 0.00 0.00 0.00 0.03 0.07 0.11 0.15 0.13 0.21 0.47 0.69 1.26 1.57 2.06 2.52 1.61 1.32 0.48 0.19 0.26 0.40 0.33 0.66 0.86 0.31 0.13 0.16 0.08
1.34 2.01 0.35 0.05 0.00 0.02 0.01 0.01 0.00 0.00 0.00 0.00 0.00 0.00 0.00 0.00 0.00 0.00 0.00 0.00 0.00 0.00 0.00 0.01 0.03 0.06 0.11 0.18 0.15 0.18 0.27 0.58 1.14 1.33 1.82 1.55 0.87 0.50 0.22 0.26 0.15 0.35 0.52 0.61 0.31 0.04 0.06 0.07 0.05
0.42 0.32 0.05 0.00 0.00 0.01 0.00 0.01 0.01 0.01 0.00 0.00 0.00 0.00 0.00 0.00 0.00 0.00 0.00 0.00 0.00 0.00 0.00 0.00 0.07 0.12 0.14 0.18 0.15 0.18 0.39 0.56 0.58 0.63 0.98 0.72 0.28 0.28 0.19 0.55 0.45 0.43 0.43 0.26 0.09 0.03 0.07 0.10 0.05
1.35 0.07 0.03 0.06 0.00 0.01 0.01 0.00 0.01 0.01 0.00 0.00 0.00 0.00 0.00 0.00 0.00 0.00 0.00 0.00 0.00 0.00 0.00 0.01 0.05 0.10 0.16 0.10 0.09 0.20 0.38 0.43 0.21 0.26 0.32 0.31 0.34 0.30 0.40 0.83 0.44 0.28 0.19 0.13 0.05 0.05 0.03 0.00 0.00
0.48 0.07 0.01 0.02 0.00 0.00 0.00 0.00 0.00 0.01 0.00 0.00 0.00 0.00 0.00 0.00 0.00 0.00 0.00 0.01 0.01 0.00 0.00 0.00 0.02 0.04 0.08 0.06 0.09 0.11 0.25 0.26 0.15 0.13 0.19 0.19 0.29 0.43 0.68 0.43 0.22 0.17 0.07 0.06 0.05 0.03 0.00 0.00 0.00
0.10 0.08 0.01 0.00 0.00 0.00 0.00 0.00 0.00 0.01 0.00 0.00 0.00 0.00 0.00 0.00 0.00 0.00 0.00 0.00 0.01 0.00 0.02 0.01 0.03 0.02 0.01 0.02 0.03 0.03 0.08 0.11 0.14 0.16 0.17 0.15 0.13 0.23 0.27 0.14 0.12 0.11 0.04 0.01 0.00 0.00 0.00 0.00 0.00
0.09 0.02 0.01 0.00 0.00 0.00 0.00 0.00 0.00 0.00 0.01 0.00 0.00 0.00 0.00 0.00 0.00 0.00 0.00 0.00 0.00 0.01 0.01 0.01 0.01 0.01 0.00 0.01 0.03 0.01 0.06 0.12 0.13 0.11 0.14 0.20 0.09 0.10 0.13 0.09 0.03 0.01 0.00 0.00 0.00 0.00 0.00 0.00 0.00
0.07 0.02 0.03 0.01 0.00 0.00 0.00 0.00 0.00 0.00 0.00 0.00 0.00 0.00 0.00 0.00 0.00 0.00 0.00 0.00 0.00 0.01 0.01 0.00 0.00 0.00 0.00 0.00 0.06 0.06 0.23 0.22 0.11 0.04 0.15 0.14 0.04 0.02 0.01 0.02 0.02 0.01 0.00 0.00 0.00 0.00 0.00 0.00 0.00
0.03 0.03 0.04 0.02 0.01 0.01 0.00 0.00 0.00 0.00 0.00 0.00 0.00 0.00 0.00 0.00 0.00 0.00 0.00 0.00 0.00 0.00 0.00 0.00 0.00 0.00 0.00 0.01 0.17 0.07 0.18 0.07 0.05 0.05 0.09 0.08 0.05 0.00 0.01 0.00 0.02 0.01 0.01 0.00 0.00 0.00 0.00 0.00 0.00
0.11 0.03 0.02 0.00 0.01 0.01 0.00 0.00 0.00 0.00 0.00 0.00 0.00 0.00 0.00 0.00 0.00 0.00 0.01 0.00 0.00 0.00 0.00 0.00 0.00 0.00 0.00 0.02 0.15 0.06 0.01 0.00 0.00 0.04 0.01 0.00 0.01 0.01 0.03 0.00 0.02 0.00 0.00 0.00 0.00 0.00 0.00 0.00 0.00
0.09 0.05 0.02 0.01 0.01 0.00 0.00 0.00 0.00 0.00 0.00 0.00 0.00 0.00 0.00 0.00 0.00 0.01 0.00 0.00 0.01 0.00 0.00 0.00 0.00 0.00 0.00 0.00 0.02 0.05 0.02 0.00 0.01 0.04 0.02 0.00 0.01 0.01 0.01 0.00 0.00 0.00 0.00 0.00 0.00 0.00 0.00 0.00 0.00
0.06 0.06 0.02 0.01 0.02 0.00 0.00 0.00 0.00 0.00 0.00 0.00 0.00 0.00 0.00 0.00 0.00 0.00 0.00 0.00 0.02 0.01 0.00 0.00 0.00 0.00 0.01 0.05 0.00 0.04 0.04 0.02 0.01 0.00 0.00 0.03 0.04 0.06 0.11 0.08 0.02 0.01 0.00 0.01 0.02 0.02 0.03 0.01 0.01
0.05 0.03 0.01 0.02 0.01 0.01 0.01 0.00 0.00 0.00 0.00 0.00 0.00 0.00 0.00 0.00 0.00 0.00 0.00 0.00 0.00 0.00 0.00 0.00 0.00 0.00 0.01 0.04 0.00 0.01 0.01 0.01 0.03 0.02 0.02 0.01 0.05 0.09 0.10 0.13 0.11 0.06 0.05 0.11 0.03 0.05 0.07 0.02 0.04
0.13 0.26 0.03 0.01 0.01 0.00 0.12 0.01 0.00 0.00 0.00 0.00 0.00 0.00 0.00 0.00 0.00 0.00 0.00 0.00 0.00 0.00 0.00 0.00 0.00 0.00 0.00 0.01 0.02 0.01 0.00 0.02 0.03 0.00 0.02 0.04 0.09 0.10 0.15 0.16 0.14 0.22 0.28 0.27 0.14 0.08 0.08 0.07 0.08
0.05 0.17 0.06 0.01 0.02 0.00 0.04 0.01 0.00 0.00 0.00 0.00 0.00 0.00 0.00 0.00 0.00 0.00 0.00 0.00 0.00 0.00 0.00 0.02 0.01 0.00 0.00 0.00 0.00 0.01 0.01 0.02 0.04 0.02 0.00 0.01 0.06 0.12 0.14 0.04 0.06 0.26 0.37 0.31 0.20 0.26 0.40 0.24 0.16
0.14 0.26 0.11 0.01 0.01 0.01 0.02 0.00 0.00 0.00 0.00 0.01 0.00 0.00 0.00 0.00 0.00 0.00 0.00 0.00 0.00 0.00 0.00 0.00 0.01 0.00 0.00 0.01 0.01 0.02 0.00 0.00 0.02 0.02 0.00 0.01 0.03 0.08 0.17 0.12 0.42 0.32 0.77 0.67 0.55 0.53 0.62 0.26 0.18
0.04 0.07 0.05 0.01 0.01 0.02 0.03 0.01 0.00 0.00 0.00 0.00 0.00 0.00 0.00 0.00 0.00 0.00 0.00 0.00 0.00 0.00 0.00 0.00 0.00 0.01 0.00 0.00 0.01 0.02 0.01 0.01 0.00 0.03 0.07 0.09 0.11 0.11 0.33 0.51 0.54 0.21 0.58 0.47 0.52 0.45 0.63 0.61 0.15
0.01 0.05 0.04 0.02 0.02 0.02 0.04 0.02 0.00 0.00 0.00 0.00 0.00 0.00 0.02 0.03 0.00 0.00 0.00 0.00 0.00 0.00 0.00 0.00 0.00 0.01 0.01 0.01 0.02 0.25 0.23 0.01 0.01 0.13 0.03 0.07 0.10 0.27 0.61 0.82 0.42 0.36 0.45 0.59 0.45 0.62 0.55 0.47 0.25
0.01 0.01 0.03 0.05 0.07 0.10 0.10 0.03 0.00 0.00 0.00 0.00 0.00 0.00 0.00 0.01 0.02 0.02 0.03 0.01 0.00 0.02 0.02 0.00 0.01 0.01 0.00 0.02 0.03 0.07 0.07 0.15 0.07 0.06 0.13 0.06 0.05 0.11 0.11 0.23 0.15 0.27 0.27 0.29 0.27 0.28 0.34 0.46 0.18
0.01 0.00 0.00 0.09 0.26 0.22 0.09 0.04 0.01 0.00 0.00 0.00 0.00 0.00 0.00 0.01 0.03 0.05 0.06 0.02 0.00 0.01 0.05 0.02 0.02 0.01 0.00 0.01 0.01 0.01 0.06 0.26 0.16 0.08 0.08 0.12 0.14 0.08 0.11 0.16 0.24 0.34 0.30 0.25 0.20 0.15 0.23 0.27 0.17
0.00 0.00 0.00 0.02 0.16 0.26 0.07 0.01 0.00 0.00 0.00 0.00 0.00 0.00 0.00 0.00 0.02 0.02 0.02 0.03 0.01 0.00 0.03 0.02 0.08 0.05 0.00 0.01 0.03 0.02 0.09 0.16 0.09 0.10 0.12 0.17 0.35 0.12 0.11 0.22 0.16 0.16 0.12 0.09 0.08 0.05 0.04 0.05 0.06
0.00 0.00 0.01 0.03 0.06 0.13 0.03 0.04 0.00 0.00 0.00 0.00 0.00 0.00 0.00 0.00 0.01 0.01 0.00 0.01 0.00 0.01 0.01 0.01 0.15 0.14 0.03 0.01 0.02 0.16 0.19 0.11 0.10 0.11 0.21 0.10 0.16 0.04 0.05 0.07 0.07 0.05 0.04 0.02 0.00 0.00 0.01 0.03 0.13
0.00 0.05 0.03 0.02 0.01 0.00 0.02 0.05 0.00 0.00 0.00 0.00 0.00 0.00 0.00 0.00 0.00 0.01 0.00 0.00 0.00 0.00 0.00 0.00 0.11 0.24 0.13 0.02 0.00 0.00 0.04 0.13 0.18 0.15 0.08 0.05 0.04 0.03 0.06 0.07 0.03 0.01 0.01 0.00 0.00 0.00 0.00 0.00 0.06
0.00 0.08 0.04 0.04 0.06 0.00 0.00 0.00 0.00 0.00 0.00 0.00 0.00 0.00 0.00 0.02 0.00 0.00 0.00 0.00 0.00 0.00 0.00 0.00 0.03 0.16 0.09 0.01 0.00 0.00 0.02 0.08 0.05 0.10 0.08 0.13 0.06 0.01 0.04 0.08 0.06 0.02 0.00 0.00 0.00 0.00 0.00 0.00 0.00
0.00 0.06 0.02 0.06 0.02 0.01 0.00 0.00 0.00 0.00 0.00 0.00 0.00 0.00 0.00 0.00 0.00 0.00 0.00 0.00 0.00 0.00 0.00 0.00 0.00 0.01 0.04 0.00 0.00 0.00 0.00 0.00 0.00 0.02 0.11 0.03 0.03 0.00 0.00 0.03 0.02 0.01 0.00 0.00 0.00 0.00 0.00 0.00 0.00
0.00 0.00 0.03 0.03 0.00 0.00 0.00 0.00 0.00 0.00 0.00 0.00 0.00 0.00 0.00 0.00 0.00 0.00 0.00 0.00 0.00 0.00 0.00 0.00 0.00 0.00 0.00 0.00 0.00 0.00 0.00 0.00 0.00 0.00 0.00 0.01 0.00 0.00 0.02 0.01 0.01 0.03 0.02 0.00 0.00 0.00 0.00 0.00 0.00
0.00 0.00 0.01 0.00 0.00 0.01 0.00 0.00 0.00 0.00 0.00 0.00 0.00 0.00 0.00 0.00 0.00 0.00 0.00 0.00 0.00 0.00 0.00 0.00 0.00 0.00 0.00 0.00 0.00 0.00 0.00 0.00 0.00 0.00 0.00 0.00 0.05 0.11 0.13 0.11 0.07 0.07 0.12 0.08 0.03 0.00 0.00 0.00 0.00
0.00 0.00 0.01 0.02 0.04 0.02 0.01 0.00 0.00 0.00 0.00 0.00 0.00 0.00 0.00 0.00 0.00 0.00 0.00 0.00 0.00 0.00 0.00 0.00 0.00 0.00 0.00 0.00 0.00 0.00 0.00 0.01 0.01 0.00 0.01 0.06 0.12 0.24 0.37 0.46 0.40 0.33 0.36 0.34 0.18 0.03 0.00 0.00 0.00